Location: Middelsbur
(53.6609°N, 7.5020°E)
Time: 13:15:00
(UTC+00:00)

Cosmos 2228 Rocket - Pass Details

Date: 06 July 2020
Orbit: 618 x 652 km, 82.5° (Epoch: 07 August)

Event Time Altitude Azimuth Distance (km) Brightness Sun altitude
Rises 23:11:20 0° 350° (N) 2,991 8.6 -13.6°
Reaches altitude 10° 23:13:39 10° 355° (N) 2,074 7.2 -13.6°
Maximum altitude 23:18:12 58° 75° (ENE) 762 3.5 -13.7°
Enters shadow 23:21:26 18° 150° (SSE) 1,565 4.6 -13.7°
